Volver al catálogo

THOR BURNER 2 R/B

ActivoSSO
NORAD 5556·ROCKET BODY·🇺🇸 United States

Lanzado Oct 14, 1971 desde Vandenberg Space Force Base

Loading…

Próximos Pases (próximas 24 horas)

TLE

ActualizadoSource: Space-Track

Época: Sep 14, 2026, 05:01 UTC

1 05556U 71087B   26257.20949751  .00000053  00000-0  43305-4 0  9990
2 05556  99.1166 229.0237 0060812 265.3954  94.0276 14.24063221847205

Sigue THOR BURNER 2 R/B en tiempo real con AllMySat

Download on the App Store